Regional Weather Roundup
Issued by NWS

Home | Current Version | Previous Version | Text Only | Print | Product List | Glossary On
Versions: 1 2 3 4 5 6 7 8 9 10 11 12 13 14 15 16 17 18 19 20 21 22 23 24 25 26 27
000
ASUS44 KBMX 031210
RWRAL

ALABAMA REGIONAL WEATHER ROUNDUP
NATIONAL WEATHER SERVICE BIRMINGHAM AL
700 AM CDT TUE MAY 03 2016

NOTE: "FAIR" INDICATES FEW OR NO CLOUDS BELOW 12,000 FEET
WITH NO SIGNIFICANT WEATHER AND/OR OBSTRUCTIONS TO VISIBILITY.

THE REMARK "TC" DENOTES TEMPERATURE IN DEGREES CELSIUS.

ALZ001>011-014-016>018-020-031300-
NORTH ALABAMA

CITY           SKY/WX    TMP DP  RH WIND       PRES   REMARKS
MUSCLE SHOALS  SUNNY     59  54  83 CALM      29.97R
6HR MIN TEMP:  58; 6HR MAX TEMP:  62;

HUNTSVILLE     MOSUNNY   60  55  83 N5        29.95R
6HR MIN TEMP:  59; 6HR MAX TEMP:  64;

DECATUR        SUNNY     57  56  96 NW5       29.96R
6HR MIN TEMP:  56; 6HR MAX TEMP:  62;

HALEYVILLE     CLOUDY    57  55  93 N5        29.98R
6HR MIN TEMP:  55; 6HR MAX TEMP:  60;

GADSDEN        CLOUDY    63  62  97 NW3       29.93R
6HR MIN TEMP:  62; 6HR MAX TEMP:  66; 6HR PCP:  0.13;

$$

ALZ012-013-022-023-030>036-040>044-031300-
WEST CENTRAL ALABAMA

CITY           SKY/WX    TMP DP  RH WIND       PRES   REMARKS
TUSCALOOSA     CLOUDY    63  61  93 NW7       29.96R
6HR MIN TEMP:  63; 6HR MAX TEMP:  65; 6HR PCP: TRACE;

$$

ALZ015-024>027-033>036-040>044-031300-
CENTRAL ALABAMA

CITY           SKY/WX    TMP DP  RH WIND       PRES   REMARKS
BIRMINGHAM     CLOUDY    62  61  96 NW9       29.96R FOG
6HR MIN TEMP:  62; 6HR MAX TEMP:  67; 6HR PCP:  0.01;

MONTGOMERY     CLOUDY    68  65  90 SW3       29.94R
6HR MIN TEMP:  68; 6HR MAX TEMP:  69;

SHELBY CO ARPT CLOUDY    64  62  93 NW5       29.94R
6HR MIN TEMP:  64; 6HR MAX TEMP:  66;

MAXWELL AFB    PTSUNNY   67  67  98 W2        29.92R
6HR MIN TEMP:  67; 6HR MAX TEMP:  68; 6HR PCP:  0.01;

GREENVILLE     CLOUDY    67  64  90 NW5       29.94R
6HR MIN TEMP:  66; 6HR MAX TEMP:  67;

$$

ALZ019-021-028-029-037-038-045>048-031300-
EAST CENTRAL ALABAMA

CITY           SKY/WX    TMP DP  RH WIND       PRES   REMARKS
ANNISTON       CLOUDY    66  63  90 SW7       29.93R
6HR MIN TEMP:  65; 6HR MAX TEMP:  66; 6HR PCP:  0.02;

ALEXANDER CITY CLOUDY    67  67 100 CALM      29.93R FOG
6HR MIN TEMP:  67; 6HR MAX TEMP:  67;

AUBURN         CLOUDY    66  64  93 W3        29.94S
6HR MIN TEMP:  65; 6HR MAX TEMP:  66; 6HR PCP: TRACE;

$$

ALZ051>064-031300-
SOUTHWEST ALABAMA

CITY           SKY/WX    TMP DP  RH WIND       PRES   REMARKS
MOBILE         CLOUDY    68  68 100 N8        29.94R FOG
6HR MIN TEMP:  66; 6HR MAX TEMP:  70;

BROOKLEY FIELD CLOUDY    70  69  97 N12       29.94R FOG
6HR MIN TEMP:  67; 6HR MAX TEMP:  70;

EVERGREEN      CLOUDY    68  66  93 N3        29.95R
6HR MIN TEMP:  64; 6HR MAX TEMP:  68; 6HR PCP:  0.01;

$$

ALZ049-050-065>069-031300-
SOUTHEAST ALABAMA

CITY           SKY/WX    TMP DP  RH WIND       PRES   REMARKS
DOTHAN         PTSUNNY   70  67  90 W7        29.96S
6HR MIN TEMP:  70; 6HR MAX TEMP:  73;

OZARK          CLOUDY    68  68 100 NW5       29.94R
6HR MIN TEMP:  68; 6HR MAX TEMP:  72;

TROY           CLOUDY    68  66  93 NW6       29.94R
6HR MIN TEMP:  65; 6HR MAX TEMP:  68;

EUFAULA        CLOUDY    69  66  90 CALM      29.92R
6HR MIN TEMP:  65; 6HR MAX TEMP:  69;

$$




USA.gov is the U.S. government's official web portal to all federal, state and local government web resources and services.